Prague, Czech Republic

5:46 AM CEST on August 21, 2017 (GMT +0200)
Ruzyne

Weather History for LKPR - June, 2013

Change the Weather History Date:

Sunday, June 16, 2013

  Actual Average Record
Temperature  
Mean Temperature 65 °F -  
Max Temperature 76 °F 73 °F 88 °F (2012)
Min Temperature 54 °F 52 °F 42 °F (2014)
Growing Degree Days 15 (Base 50)    
Moisture  
Dew Point 54 °F    
Average Humidity 64    
Maximum Humidity 88    
Minimum Humidity 41    
Precipitation  
Precipitation 0.00 in 0.09 in - ()
Sea Level Pressure  
Sea Level Pressure 30.03 in    
Wind  
Wind Speed 7 mph ()    
Max Wind Speed 15 mph    
Max Gust Speed -    
Visibility 6.2 miles    
Events      
Averages and records for this station are not official NWS values.
T = Trace of Precipitation, MM = Missing Value Source: Averaged Metar Reports

Daily Weather History Graph

Daily Weather History Graph

Search for Another Location

Airport or City:

Trip Planner

Search our weather history database for the weather conditions in past years. The results will help you decide how hot, cold, wet, or windy it might be!

Date:

Astronomy

Jun. 16, 2013 Rise Set
Actual Time 4:52 AM CEST 9:14 PM CEST
Civil Twilight 4:07 AM CEST 9:59 PM CEST
Nautical Twilight 3:02 AM CEST 11:05 PM CEST
Astronomical Twilight 1:35 AM CEST 12:31 AM CEST
Moon 12:52 PM CEST (6/16) 12:32 AM CEST (6/16)
Length of Visible Light 17h 51m
Length of Day
16h 22m
Waxing Crescent, 47% of the Moon is Illuminated
Jun 16
Waxing Crescent
Jun 16
First Quarter
Jun 23
Full
Jun 30
Last Quarter
Jul 8
New

Hourly Weather History & Observations

Time (CEST) Temp. Dew Point Humidity Pressure Visibility Wind Dir Wind Speed Gust Speed Precip Events Conditions
12:00 AM 60.8 °F 55.4 °F 82% 30.01 in - SW 4.6 mph - N/A   Clear
12:30 AM 60.8 °F 53.6 °F 77% 30.01 in - SSW 6.9 mph - N/A   Clear
1:00 AM 60.8 °F 55.4 °F 82% 30.01 in - South 5.8 mph - N/A   Clear
1:30 AM 59.0 °F 53.6 °F 82% 30.01 in - SW 6.9 mph - N/A   Clear
2:00 AM 60 °F 55 °F 78% 30.00 in 31 mi SW 8.9 mph - -   Mostly Cloudy
2:00 AM 59.0 °F 55.4 °F 88% 30.01 in - SW 6.9 mph - N/A   Clear
2:30 AM 60.8 °F 55.4 °F 82% 30.01 in - SSW 5.8 mph - N/A   Clear
3:00 AM 59.0 °F 55.4 °F 88% 30.01 in - WSW 6.9 mph - N/A   Clear
3:30 AM 57.2 °F 53.6 °F 88% 30.04 in - West 8.1 mph - N/A   Clear
4:00 AM 57.2 °F 53.6 °F 88% 30.04 in - West 9.2 mph - N/A   Clear
4:30 AM 57.2 °F 53.6 °F 88% 30.04 in - WSW 9.2 mph - N/A   Clear
5:00 AM 55.4 °F 51.8 °F 88% 30.04 in - SW 8.1 mph - N/A   Clear
5:30 AM 57.2 °F 51.8 °F 82% 30.04 in - West 10.4 mph - N/A   Clear
6:00 AM 59.0 °F 51.8 °F 77% 30.04 in - West 8.1 mph - N/A   Clear
6:30 AM 59.0 °F 53.6 °F 82% 30.04 in - West 6.9 mph - N/A   Clear
7:00 AM 60.8 °F 51.8 °F 72% 30.06 in - WSW 4.6 mph - N/A   Clear
7:30 AM 60.8 °F 51.8 °F 72% 30.06 in - WSW 6.9 mph - N/A   Clear
8:00 AM 62 °F 52 °F 62% 30.05 in 47 mi West 6.7 mph - -   Mostly Cloudy
8:00 AM 60.8 °F 50.0 °F 68% 30.06 in 6.2 mi WSW 6.9 mph - N/A   Mostly Cloudy
8:30 AM 64.4 °F 51.8 °F 64% 30.06 in 6.2 mi WSW 6.9 mph - N/A   Mostly Cloudy
9:00 AM 64.4 °F 50.0 °F 59% 30.06 in - WSW 6.9 mph - N/A   Clear
9:30 AM 66.2 °F 50.0 °F 56% 30.06 in - WSW 9.2 mph - N/A   Clear
10:00 AM 66.2 °F 50.0 °F 56% 30.06 in - WSW 9.2 mph - N/A   Clear
10:30 AM 68.0 °F 51.8 °F 56% 30.06 in - West 9.2 mph - N/A   Clear
11:00 AM 68.0 °F 51.8 °F 56% 30.06 in 6.2 mi West 9.2 mph - N/A   Partly Cloudy
11:30 AM 69.8 °F 51.8 °F 53% 30.06 in 6.2 mi WSW 9.2 mph - N/A   Partly Cloudy
12:00 PM 69.8 °F 53.6 °F 56% 30.06 in 6.2 mi WSW 10.4 mph - N/A   Partly Cloudy
12:30 PM 71.6 °F 53.6 °F 53% 30.06 in 6.2 mi West 12.7 mph - N/A   Partly Cloudy
1:00 PM 73.4 °F 55.4 °F 53% 30.06 in 6.2 mi WSW 11.5 mph - N/A   Partly Cloudy
1:30 PM 73.4 °F 55.4 °F 53% 30.04 in 6.2 mi West 15.0 mph - N/A   Partly Cloudy
2:00 PM 74 °F 55 °F 41% 30.00 in 47 mi WSW 11.2 mph - -   Scattered Clouds
2:00 PM 73.4 °F 53.6 °F 50% 30.04 in - SW 11.5 mph - N/A   Clear
2:30 PM 73.4 °F 51.8 °F 47% 30.04 in - WSW 12.7 mph - N/A   Clear
3:00 PM 73.4 °F 53.6 °F 50% 30.04 in - WSW 9.2 mph - N/A   Clear
3:30 PM 75.2 °F 53.6 °F 47% 30.04 in - West 11.5 mph - N/A   Clear
4:00 PM 75.2 °F 53.6 °F 47% 30.01 in - SW 8.1 mph - N/A   Clear
4:30 PM 75.2 °F 51.8 °F 44% 30.01 in - West 10.4 mph - N/A   Clear
5:00 PM 77.0 °F 55.4 °F 47% 30.01 in - West 6.9 mph - N/A   Clear
5:30 PM 75.2 °F 55.4 °F 50% 30.01 in - West 10.4 mph - N/A   Clear
6:00 PM 75.2 °F 53.6 °F 47% 30.01 in - West 12.7 mph - N/A   Clear
6:30 PM 73.4 °F 55.4 °F 53% 30.01 in - West 9.2 mph - N/A   Clear
7:00 PM 75.2 °F 55.4 °F 50% 30.01 in - NW 5.8 mph - N/A   Clear
7:30 PM 73.4 °F 55.4 °F 53% 30.01 in - North 6.9 mph - N/A   Clear
8:00 PM 73 °F 55 °F 43% 29.98 in 47 mi NNE 2.2 mph - -   Scattered Clouds
8:00 PM 73.4 °F 57.2 °F 57% 30.01 in - NNE 4.6 mph - N/A   Clear
8:30 PM 71.6 °F 55.4 °F 57% 30.01 in - ENE 3.5 mph - N/A   Clear
9:00 PM 68.0 °F 55.4 °F 64% 30.01 in - SE 3.5 mph - N/A   Clear
9:30 PM 66.2 °F 53.6 °F 64% 30.01 in - Variable 2.3 mph - N/A   Clear
10:00 PM 62.6 °F 55.4 °F 77% 30.04 in - SSE 2.3 mph - N/A   Clear
10:30 PM 64.4 °F 55.4 °F 73% 30.04 in - SE 5.8 mph - N/A   Clear
11:00 PM 62.6 °F 55.4 °F 77% 30.04 in - SE 5.8 mph - N/A   Clear
11:30 PM 62.6 °F 53.6 °F 72% 30.04 in - SSE 4.6 mph - N/A   Clear